Torna al catalogo

DELTA 1 DEB

AttivoPO
NORAD 42651·DEBRIS·🇺🇸 United States

Lanciato Jun 12, 1975 da Vandenberg Space Force Base

Loading…

Prossimi Passaggi (prossime 24 ore)

TLE

ObsoletoSource: Space-Track

Epoca: Aug 28, 2026, 00:41 UTC

1 42651U 75052ML  26240.02910038  .00002871  00000-0  44811-2 0  9992
2 42651  99.2975 162.6125 0155431  19.5098  42.9133 13.46654290581012

Traccia DELTA 1 DEB in tempo reale con AllMySat

Download on the App Store